| time (UTC) | temp F | wind direction | speed MPH | gust MPH | rain 1hr in | rain 24hr in | rain mn in | humidity % | barometer mb |
| 20260831021547 | 74 | 250 | 0.0 | 0.0 | 0.00 | 0.04 | 0.04 | 90 | 1019.7 |
| 20260831020035 | 74 | 250 | 0.0 | 0.0 | 0.00 | 0.04 | 0.04 | 90 | 1019.5 |
| 20260831014536 | 74 | 250 | 0.0 | 0.0 | 0.00 | 0.04 | 0.04 | 89 | 1019.4 |
| 20260831013035 | 74 | 250 | 0.0 | 0.0 | 0.00 | 0.04 | 0.04 | 89 | 1019.6 |
| 20260831011545 | 74 | 188 | 0.0 | 0.0 | 0.00 | 0.04 | 0.04 | 89 | 1019.7 |
| 20260831010038 | 75 | 188 | 0.0 | 0.0 | 0.00 | 0.04 | 0.04 | 88 | 1019.5 |
| 20260831004535 | 75 | 188 | 0.0 | 1.0 | 0.00 | 0.04 | 0.04 | 88 | 1019.3 |
| 20260831003036 | 75 | 175 | 0.0 | 0.0 | 0.00 | 0.04 | 0.04 | 87 | 1019.2 |
| 20260831001534 | 76 | 175 | 0.0 | 0.0 | 0.00 | 0.04 | 0.04 | 86 | 1018.9 |
| 20260831000038 | 76 | 189 | 0.0 | 0.0 | 0.00 | 0.04 | 0.04 | 85 | 1018.9 |
| 20260830234532 | 77 | 189 | 0.0 | 0.0 | 0.00 | 0.04 | 0.04 | 84 | 1018.7 |
| 20260830233035 | 78 | 187 | 0.0 | 0.0 | 0.00 | 0.04 | 0.04 | 83 | 1019.0 |
| 20260830231531 | 79 | 185 | 0.0 | 0.0 | 0.00 | 0.04 | 0.04 | 82 | 1019.0 |
| 20260830230036 | 79 | 184 | 0.0 | 1.0 | 0.00 | 0.04 | 0.04 | 79 | 1018.8 |
| 20260830224531 | 80 | 202 | 0.0 | 1.0 | 0.00 | 0.04 | 0.04 | 79 | 1018.8 |
| 20260830223029 | 82 | 184 | 0.0 | 1.0 | 0.00 | 0.04 | 0.04 | 77 | 1018.8 |
| 20260830221529 | 82 | 232 | 0.0 | 5.0 | 0.00 | 0.04 | 0.04 | 77 | 1018.9 |
| 20260830220031 | 83 | 214 | 0.0 | 0.0 | 0.00 | 0.04 | 0.04 | 77 | 1018.9 |
| 20260830214526 | 83 | 236 | 0.0 | 0.0 | 0.00 | 0.04 | 0.04 | 78 | 1018.8 |
| 20260830213033 | 82 | 226 | 0.0 | 0.0 | 0.00 | 0.04 | 0.04 | 79 | 1018.8 |
| 20260830211522 | 81 | 202 | 0.0 | 0.0 | 0.00 | 0.04 | 0.04 | 79 | 1018.7 |
| 20260830210024 | 81 | 183 | 0.0 | 0.0 | 0.00 | 0.04 | 0.04 | 80 | 1018.9 |
| 20260830204519 | 81 | 212 | 0.0 | 0.0 | 0.00 | 0.04 | 0.04 | 84 | 1018.9 |
| 20260830203019 | 80 | 179 | 0.0 | 0.0 | 0.00 | 0.04 | 0.04 | 82 | 1018.9 |
| 20260830201518 | 79 | 197 | 0.0 | 1.0 | 0.00 | 0.04 | 0.04 | 83 | 1019.1 |
| 20260830200015 | 79 | 204 | 0.0 | 1.0 | 0.00 | 0.04 | 0.04 | 83 | 1019.3 |
| 20260830194519 | 79 | 208 | 0.0 | 0.0 | 0.01 | 0.04 | 0.04 | 84 | 1019.5 |
| 20260830193013 | 77 | 205 | 0.0 | 0.0 | 0.04 | 0.04 | 0.04 | 87 | 1019.7 |
| 20260830191510 | 76 | 218 | 0.0 | 3.0 | 0.04 | 0.04 | 0.04 | 89 | 1020.0 |
| 20260830190011 | 76 | 216 | 0.0 | 2.0 | 0.04 | 0.04 | 0.04 | 87 | 1020.5 |
| 20260830184506 | 77 | 239 | 0.0 | 3.0 | 0.02 | 0.02 | 0.02 | 83 | 1020.7 |
| 20260830183006 | 78 | 243 | 0.0 | 2.0 | 0.00 | 0.00 | 0.00 | 80 | 1020.6 |
| 20260830181505 | 79 | 240 | 0.0 | 1.0 | 0.00 | 0.00 | 0.00 | 77 | 1020.7 |
| 20260830180004 | 79 | 219 | 1.0 | 7.0 | 0.00 | 0.00 | 0.00 | 77 | 1020.9 |
| 20260830174505 | 80 | 204 | 1.0 | 10.0 | 0.00 | 0.00 | 0.00 | 76 | 1020.8 |
| 20260830173002 | 81 | 219 | 1.0 | 20.0 | 0.00 | 0.00 | 0.00 | 74 | 1020.9 |
| 20260830171501 | 81 | 232 | 5.0 | 11.0 | 0.00 | 0.00 | 0.00 | 75 | 1021.0 |
| 20260830170057 | 81 | 212 | 0.0 | 15.0 | 0.00 | 0.00 | 0.00 | 79 | 1021.3 |
| 20260830164556 | 80 | 222 | 0.0 | 9.0 | 0.00 | 0.00 | 0.00 | 76 | 1021.5 |
| 20260830163056 | 81 | 224 | 2.0 | 13.0 | 0.00 | 0.00 | 0.00 | 77 | 1021.5 |
| 20260830161554 | 81 | 157 | 0.0 | 11.0 | 0.00 | 0.00 | 0.00 | 77 | 1021.6 |
| 20260830160052 | 80 | 215 | 1.0 | 14.0 | 0.00 | 0.00 | 0.00 | 76 | 1021.7 |
| 20260830154551 | 80 | 229 | 3.0 | 12.0 | 0.00 | 0.00 | 0.00 | 76 | 1021.8 |
| 20260830153048 | 80 | 189 | 1.0 | 11.0 | 0.00 | 0.00 | 0.00 | 80 | 1021.8 |
| 20260830151552 | 78 | 216 | 3.0 | 16.0 | 0.00 | 0.00 | 0.00 | 80 | 1021.8 |
| 20260830150043 | 77 | 241 | 0.0 | 11.0 | 0.00 | 0.00 | 0.00 | 80 | 1021.9 |
| 20260830144546 | 77 | 230 | 0.0 | 13.0 | 0.00 | 0.00 | 0.00 | 82 | 1021.9 |
| 20260830143040 | 76 | 211 | 1.0 | 17.0 | 0.00 | 0.00 | 0.00 | 84 | 1021.7 |
| 20260830141537 | 74 | 200 | 5.0 | 14.0 | 0.00 | 0.00 | 0.00 | 88 | 1021.9 |
| 20260830140028 | 72 | 235 | 2.0 | 14.0 | 0.00 | 0.00 | 0.00 | 91 | 1022.2 |
| 20260830134535 | 72 | 186 | 0.0 | 5.0 | 0.00 | 0.00 | 0.00 | 92 | 1022.3 |
| 20260830133020 | 70 | 212 | 0.0 | 0.0 | 0.00 | 0.00 | 0.00 | 93 | 1022.6 |
| 20260830131517 | 69 | 181 | 0.0 | 1.0 | 0.00 | 0.00 | 0.00 | 95 | 1022.7 |
| 20260830130015 | 68 | 199 | 0.0 | 0.0 | 0.00 | 0.00 | 0.00 | 95 | 1022.9 |
| 20260830124510 | 66 | 224 | 0.0 | 0.0 | 0.00 | 0.00 | 0.00 | 95 | 1023.1 |
| 20260830123016 | 66 | 274 | 0.0 | 0.0 | 0.00 | 0.00 | 0.00 | 95 | 1023.3 |
| 20260830121503 | 65 | 287 | 0.0 | 0.0 | 0.00 | 0.00 | 0.00 | 96 | 1023.3 |
| 20260830120002 | 64 | 289 | 0.0 | 0.0 | 0.00 | 0.00 | 0.00 | 95 | 1023.1 |
| 20260830114602 | 63 | 289 | 0.0 | 0.0 | 0.00 | 0.00 | 0.00 | 96 | 1023.2 |
| 20260830113055 | 62 | 290 | 0.0 | 0.0 | 0.00 | 0.00 | 0.00 | 96 | 1023.2 |
| 20260830111553 | 61 | 290 | 0.0 | 0.0 | 0.00 | 0.00 | 0.00 | 95 | 1023.1 |
| 20260830110100 | 61 | 290 | 0.0 | 0.0 | 0.00 | 0.00 | 0.00 | 95 | 1023.1 |
| 20260830104549 | 60 | 290 | 0.0 | 0.0 | 0.00 | 0.00 | 0.00 | 95 | 1023.0 |
| 20260830103048 | 60 | 290 | 0.0 | 0.0 | 0.00 | 0.00 | 0.00 | 95 | 1023.0 |
| 20260830101545 | 59 | 290 | 0.0 | 0.0 | 0.00 | 0.00 | 0.00 | 95 | 1023.0 |
| 20260830100051 | 58 | 290 | 0.0 | 0.0 | 0.00 | 0.00 | 0.00 | 95 | 1023.1 |
| 20260830094542 | 58 | 290 | 0.0 | 0.0 | 0.00 | 0.00 | 0.00 | 95 | 1023.1 |
| 20260830093040 | 57 | 290 | 0.0 | 0.0 | 0.00 | 0.00 | 0.00 | 94 | 1023.1 |
| 20260830091541 | 57 | 290 | 0.0 | 0.0 | 0.00 | 0.00 | 0.00 | 94 | 1023.0 |
| 20260830090039 | 58 | 290 | 0.0 | 0.0 | 0.00 | 0.00 | 0.00 | 93 | 1023.1 |
| 20260830084612 | 58 | 290 | 0.0 | 0.0 | 0.00 | 0.00 | 0.00 | 94 | 1023.0 |
| 20260830083038 | 58 | 290 | 0.0 | 0.0 | 0.00 | 0.00 | 0.00 | 94 | 1023.0 |
| 20260830081542 | 58 | 290 | 0.0 | 0.0 | 0.00 | 0.00 | 0.00 | 94 | 1023.3 |
| 20260830080034 | 58 | 290 | 0.0 | 0.0 | 0.00 | 0.00 | 0.00 | 94 | 1023.6 |
| 20260830074542 | 58 | 290 | 0.0 | 0.0 | 0.00 | 0.00 | 0.00 | 94 | 1023.7 |
| 20260830073032 | 58 | 290 | 0.0 | 0.0 | 0.00 | 0.00 | 0.00 | 94 | 1023.5 |
| 20260830071531 | 58 | 290 | 0.0 | 0.0 | 0.00 | 0.00 | 0.00 | 94 | 1023.6 |
| 20260830070030 | 58 | 290 | 0.0 | 0.0 | 0.00 | 0.00 | 0.00 | 94 | 1023.5 |
| 20260830064529 | 57 | 290 | 0.0 | 0.0 | 0.00 | 0.00 | 0.00 | 94 | 1023.7 |
| 20260830063027 | 57 | 290 | 0.0 | 0.0 | 0.00 | 0.00 | 0.00 | 94 | 1023.8 |
| 20260830061531 | 56 | 290 | 0.0 | 0.0 | 0.00 | 0.00 | 0.00 | 93 | 1024.0 |
| 20260830060029 | 56 | 290 | 0.0 | 0.0 | 0.00 | 0.00 | 0.00 | 93 | 1024.0 |
| 20260830054524 | 56 | 290 | 0.0 | 0.0 | 0.00 | 0.00 | 0.00 | 93 | 1023.8 |
| 20260830053023 | 56 | 290 | 0.0 | 0.0 | 0.00 | 0.00 | 0.00 | 93 | 1023.9 |
| 20260830051521 | 56 | 290 | 0.0 | 0.0 | 0.00 | 0.00 | 0.00 | 93 | 1023.9 |
| 20260830050027 | 56 | 290 | 0.0 | 0.0 | 0.00 | 0.00 | 0.00 | 93 | 1023.9 |
| 20260830044518 | 56 | 290 | 0.0 | 0.0 | 0.00 | 0.00 | 0.00 | 92 | 1023.7 |
| 20260830043025 | 56 | 290 | 0.0 | 0.0 | 0.00 | 0.00 | 0.00 | 92 | 1023.6 |
| 20260830041513 | 56 | 290 | 0.0 | 0.0 | 0.00 | 0.00 | 0.00 | 92 | 1023.5 |
| 20260830040011 | 56 | 290 | 0.0 | 0.0 | 0.00 | 0.00 | 0.00 | 92 | 1023.4 |
| 20260830034507 | 57 | 290 | 0.0 | 0.0 | 0.00 | 0.00 | 0.00 | 92 | 1023.3 |
| 20260830033002 | 57 | 290 | 0.0 | 0.0 | 0.00 | 0.00 | 0.00 | 91 | 1023.4 |
| 20260830031558 | 57 | 290 | 0.0 | 0.0 | 0.00 | 0.00 | 0.00 | 92 | 1023.5 |
| 20260830030054 | 57 | 290 | 0.0 | 0.0 | 0.00 | 0.00 | 0.00 | 91 | 1023.5 |
| 20260830024549 | 57 | 290 | 0.0 | 0.0 | 0.00 | 0.00 | 0.00 | 91 | 1023.3 |
| 20260830023047 | 58 | 290 | 0.0 | 0.0 | 0.00 | 0.00 | 0.00 | 91 | 1023.4 |